This is the latest recevied weather packets stored in our database for station/object 4S6DRJ-13. If no packets are shown the sender has not sent any weather packets the latest 10 day(s).
| Time | Temp. | Humidity | Pressure | Rain* | Wind** | Luminosity | Snow |
|---|---|---|---|---|---|---|---|
| 1788281629 | 28.33° C | 82% | 1011.6 hPa | 0 mm | 0.89 m/s, 338° | 0 W/m² | - |
| 1788281568 | 28.33° C | 82% | 1011.7 hPa | 0 mm | 0.89 m/s, 270° | 0 W/m² | - |
| 1788281507 | 28.33° C | 82% | 1011.6 hPa | 0 mm | 0.89 m/s, 205° | 0 W/m² | - |
| 1788281447 | 28.33° C | 82% | 1011.7 hPa | 0 mm | 0.45 m/s, 231° | 0 W/m² | - |
| 1788281385 | 28.33° C | 82% | 1011.6 hPa | 0 mm | 1.79 m/s, 181° | 0 W/m² | - |
| 1788281324 | 28.33° C | 82% | 1011.6 hPa | 0 mm | 2.24 m/s, 225° | 0 W/m² | - |
| 1788281263 | 28.33° C | 82% | 1011.6 hPa | 0 mm | 0 m/s | 0 W/m² | - |
| 1788281202 | 28.33° C | 82% | 1011.6 hPa | 0 mm | 0.89 m/s, 208° | 0 W/m² | - |
| 1788281141 | 28.33° C | 82% | 1011.5 hPa | 0 mm | 1.34 m/s, 234° | 0 W/m² | - |
| 1788281080 | 28.33° C | 82% | 1011.6 hPa | 0 mm | 0.89 m/s, 234° | 0 W/m² | - |
| 1788281019 | 28.33° C | 82% | 1011.7 hPa | 0 mm | 0.45 m/s, 47° | 0 W/m² | - |
| 1788280958 | 28.33° C | 82% | 1011.5 hPa | 0 mm | 0.45 m/s, 201° | 0 W/m² | - |
| 1788280898 | 28.33° C | 82% | 1011.7 hPa | 0 mm | 0.89 m/s, 245° | 0 W/m² | - |
| 1788280836 | 28.33° C | 82% | 1011.6 hPa | 0 mm | 0.89 m/s, 252° | 0 W/m² | - |
| 1788280775 | 28.33° C | 82% | 1011.6 hPa | 0 mm | 0.89 m/s, 279° | 0 W/m² | - |
| 1788280732 | 28.33° C | 82% | 1011.5 hPa | 0 mm | 0.89 m/s, 228° | 0 W/m² | - |
| 1788280653 | 28.33° C | 82% | 1011.6 hPa | 0 mm | 1.34 m/s, 217° | 0 W/m² | - |
| 1788280592 | 28.33° C | 82% | 1011.4 hPa | 0 mm | 1.34 m/s, 239° | 0 W/m² | - |
| 1788280531 | 28.33° C | 82% | 1011.6 hPa | 0 mm | 0.89 m/s, 274° | 0 W/m² | - |
| 1788280470 | 28.33° C | 82% | 1011.6 hPa | 0 mm | 0.45 m/s, 240° | 0 W/m² | - |
| 1788280410 | 28.33° C | 81% | 1011.4 hPa | 0 mm | 0.45 m/s, 224° | 0 W/m² | - |
| 1788280348 | 28.33° C | 81% | 1011.4 hPa | 0 mm | 2.68 m/s, 236° | 0 W/m² | - |
| 1788280287 | 28.33° C | 81% | 1011.5 hPa | 0 mm | 1.79 m/s, 237° | 0 W/m² | - |
| 1788280226 | 28.33° C | 81% | 1011.4 hPa | 0 mm | 0.89 m/s, 328° | 0 W/m² | - |
| 1788280165 | 28.33° C | 81% | 1011.4 hPa | 0 mm | 1.34 m/s, 192° | 0 W/m² | - |
* Rain latest hour (hover to see other rain measurements)
** Current wind speed in m/s (hover to see current wind gust speed)